Location: Asheville, NC
(35.6000°N, 82.5500°W)
Time: 11:40:15
(UTC-04:00)

Vanguard 1 - Pass Details

Date: 09 February 2018
Orbit: 650 x 3833 km, 34.3° (Epoch: 23 May)

Event Time Altitude Azimuth Distance (km) Brightness Sun altitude
Rises 19:35:18 0° 257° (WSW) 3,593 14.6 -18.6°
Reaches altitude 10° 19:38:12 10° 255° (WSW) 2,384 13.2 -19.2°
Maximum altitude 19:43:18 70° 172° (S) 709 9.2 -20.2°
Enters shadow 19:44:26 47° 107° (ESE) 860 9.3 -20.4°
